DW1449 Weather Reports


time (UTC)temp
C
wind
direction
speed
KPH
gust
KPH
rain 1hr
cm
rain 24hr
cm
rain mn
cm
humidity
%
barometer
mb
20260507074550 10 0.0 0.0 0.00 0.00 0.00 77 1016.6
20260507074033 10 0.0 0.0 0.00 0.00 0.00 76 1016.6
20260507073535 10 0.0 0.0 0.00 0.00 0.00 77 1016.5
20260507073057 10 0.0 0.0 0.00 0.00 0.00 77 1016.6
20260507072535 9 0.0 0.0 0.00 0.00 0.00 77 1016.5
20260507072035 9 0.0 0.0 0.00 0.00 0.00 77 1016.5
20260507071542 9 0.0 0.0 0.00 0.00 0.00 76 1016.6
20260507071035 9 0.0 0.0 0.00 0.00 0.00 74 1016.5
20260507070535 8 0.0 0.0 0.00 0.00 0.00 74 1016.5
20260507070051 8 0.0 0.0 0.00 0.00 0.00 74 1016.4
20260507065536 8 0.0 0.0 0.00 0.00 0.00 74 1016.4
20260507065035 8 0.0 0.0 0.00 0.00 0.00 75 1016.4
20260507064548 8 0.0 0.0 0.00 0.00 0.00 75 1016.3
20260507064036 8 0.0 0.0 0.00 0.00 0.00 75 1016.3
20260507063536 8 0.0 0.0 0.00 0.00 0.00 80 1016.4
20260507063056 8 0.0 0.0 0.00 0.00 0.00 83 1016.4
20260507062535 7 0.0 0.0 0.00 0.00 0.00 83 1016.5
20260507062035 7 0.0 0.0 0.00 0.00 0.00 85 1016.3
20260507061546 7 0.0 0.0 0.00 0.00 0.00 86 1016.3
20260507061036 7 0.0 0.0 0.00 0.00 0.00 88 1016.4
20260507060535 7 0.0 0.0 0.00 0.00 0.00 90 1016.3
20260507060046 6 0.0 0.0 0.00 0.00 0.00 91 1016.1
20260507055532 6 0.0 0.0 0.00 0.00 0.00 92 1016.3
20260507055034 6 0.0 0.0 0.00 0.00 0.00 92 1016.2
20260507054544 6 0.0 0.0 0.00 0.00 0.00 92 1016.2
20260507054035 6 0.0 0.0 0.00 0.00 0.00 93 1016.1
20260507053532 5 0.0 0.0 0.00 0.00 0.00 93 1016.2
20260507053050 5 0.0 0.0 0.00 0.00 0.00 93 1016.1
20260507052534 5 0.0 0.0 0.00 0.00 0.00 93 1016.0
20260507052035 5 0.0 0.0 0.00 0.00 0.00 93 1016.0
20260507051542 5 0.0 0.0 0.00 0.00 0.00 93 1016.1
20260507051039 5 0.0 0.0 0.00 0.00 0.00 93 1016.0
20260507050536 5 0.0 0.0 0.00 0.00 0.00 93 1015.9
20260507050053 4 0.0 0.0 0.00 0.00 0.00 93 1015.9
20260507045535 4 0.0 0.0 0.00 0.00 0.00 93 1015.7
20260507045035 3 0.0 0.0 0.00 0.00 0.00 93 1015.9
20260507044546 3 0.0 0.0 0.00 0.00 0.00 93 1015.8
20260507044038 3 0.0 0.0 0.00 0.00 0.00 93 1015.8
20260507043535 3 0.0 0.0 0.00 0.00 0.00 92 1015.9
20260507043047 2 0.0 0.0 0.00 0.00 0.00 92 1015.7
20260507042535 2 0.0 0.0 0.00 0.00 0.00 93 1015.8
20260507042036 2 0.0 0.0 0.00 0.00 0.00 92 1015.7
20260507041547 2 0.0 0.0 0.00 0.00 0.00 92 1015.7
20260507041032 2 0.0 0.0 0.00 0.00 0.00 92 1015.8
20260507040534 2 0.0 0.0 0.00 0.00 0.00 92 1015.6
20260507040103 2 0.0 0.0 0.00 0.00 0.00 92 1015.5
20260507035534 2 0.0 0.0 0.00 0.00 0.00 92 1015.5
20260507035034 2 0.0 0.0 0.00 0.00 0.00 92 1015.6
20260507034602 2 0.0 0.0 0.00 0.00 0.00 92 1015.5
20260507034034 2 0.0 0.0 0.00 0.00 0.00 92 1015.5
20260507033533 2 0.0 0.0 0.00 0.00 0.00 91 1015.5
20260507033102 2 0.0 0.0 0.00 0.00 0.00 92 1015.5
20260507032537 2 0.0 0.0 0.00 0.00 0.00 91 1015.4
20260507032035 2 0.0 0.0 0.00 0.00 0.00 92 1015.4
20260507031545 2 0.0 0.0 0.00 0.00 0.00 91 1015.3
20260507031035 1 0.0 0.0 0.00 0.00 0.00 91 1015.4
20260507030538 1 0.0 0.0 0.00 0.00 0.00 91 1015.3
20260507030043 1 0.0 0.0 0.00 0.00 0.00 91 1015.3
20260507025535 1 0.0 0.0 0.00 0.00 0.00 91 1015.3
20260507025035 1 0.0 0.0 0.00 0.00 0.00 91 1015.3
20260507024552 1 0.0 0.0 0.00 0.00 0.00 91 1015.2
20260507024034 1 0.0 0.0 0.00 0.00 0.00 91 1015.1
20260507023538 1 0.0 0.0 0.00 0.00 0.00 91 1015.1
20260507023040 1 0.0 0.0 0.00 0.00 0.00 90 1015.1
20260507022532 1 0.0 0.0 0.00 0.00 0.00 90 1015.1
20260507022035 1 0.0 0.0 0.00 0.00 0.00 90 1015.0
20260507021550 1 0.0 0.0 0.00 0.00 0.00 90 1015.0
20260507021039 1 0.0 0.0 0.00 0.00 0.00 90 1015.0
20260507020534 1 0.0 0.0 0.00 0.00 0.00 90 1015.1
20260507020042 1 0.0 0.0 0.00 0.00 0.00 90 1015.1
20260507015534 1 0.0 0.0 0.00 0.00 0.00 89 1015.1
20260507015034 1 0.0 0.0 0.00 0.00 0.00 89 1015.0
20260507014545 2 0.0 0.0 0.00 0.00 0.00 89 1015.1
20260507014033 2 0.0 0.0 0.00 0.00 0.00 89 1014.8
20260507013532 2 0.0 0.0 0.00 0.00 0.00 89 1014.9
20260507013103 2 0.0 0.0 0.00 0.00 0.00 88 1015.0
20260507012535 2 0.0 0.0 0.00 0.00 0.00 88 1014.9
20260507012035 2 0.0 0.0 0.00 0.00 0.00 88 1014.9
20260507011552 2 0.0 0.0 0.00 0.00 0.00 88 1014.8
20260507011033 2 0.0 0.0 0.00 0.00 0.00 87 1014.9
20260507010535 2 0.0 0.0 0.00 0.00 0.00 87 1014.9
20260507010053 2 0.0 0.0 0.00 0.00 0.00 87 1014.8
20260507005534 2 0.0 0.0 0.00 0.00 0.00 87 1014.8
20260507005034 2 0.0 0.0 0.00 0.00 0.00 87 1014.8
20260507004540 2 0.0 0.0 0.00 0.00 0.00 87 1015.0
20260507004035 2 0.0 0.0 0.00 0.00 0.00 86 1015.0
20260507003535 2 0.0 0.0 0.00 0.00 0.00 86 1014.9
20260507003042 2 0.0 0.0 0.00 0.00 0.00 86 1014.9
20260507002535 2 0.0 0.0 0.00 0.00 0.00 86 1014.9
20260507002035 2 0.0 0.0 0.00 0.00 0.00 86 1014.7
20260507001604 2 0.0 0.0 0.00 0.00 0.00 86 1014.7
20260507001038 2 0.0 0.0 0.00 0.00 0.00 86 1014.9
20260507000535 2 0.0 0.0 0.00 0.00 0.00 85 1014.8
20260507000042 2 0.0 0.0 0.00 0.00 0.00 85 1014.7
20260506235535 2 0.0 0.0 0.00 0.00 0.00 85 1014.9
20260506235038 2 0.0 0.0 0.00 0.00 0.00 84 1014.8
20260506234552 2 0.0 0.0 0.00 0.00 0.00 83 1014.8
20260506234035 2 0.0 0.0 0.00 0.00 0.00 83 1014.9
20260506233533 2 0.0 0.0 0.00 0.00 0.00 82 1014.9
20260506233047 2 0.0 0.0 0.00 0.00 0.00 81 1014.7
20260506232535 2 0.0 0.0 0.00 0.00 0.00 81 1014.9
20260506232034 2 0.0 0.0 0.00 0.00 0.00 81 1014.7
20260506231542 2 0.0 0.0 0.00 0.00 0.00 81 1014.8
20260506231034 2 0.0 0.0 0.00 0.00 0.00 81 1014.8
20260506230535 2 0.0 0.0 0.00 0.00 0.00 80 1014.9
20260506230045 2 0.0 0.0 0.00 0.00 0.00 79 1014.8
20260506225535 2 0.0 0.0 0.00 0.00 0.00 79 1014.8
20260506225040 2 0.0 0.0 0.00 0.00 0.00 78 1014.7
20260506224554 2 0.0 0.0 0.00 0.00 0.00 78 1014.9
20260506224035 3 0.0 0.0 0.00 0.00 0.00 77 1015.0
20260506223536 3 0.0 0.0 0.00 0.00 0.00 76 1014.8
20260506223054 3 0.0 0.0 0.00 0.00 0.00 74 1014.7
20260506222539 3 0.0 0.0 0.00 0.00 0.00 74 1014.6
20260506222036 3 0.0 0.0 0.00 0.00 0.00 74 1014.7
20260506221542 3 0.0 0.0 0.00 0.00 0.00 75 1014.6
20260506221035 3 0.0 0.0 0.00 0.00 0.00 75 1014.5
20260506220535 3 0.0 0.0 0.00 0.00 0.00 75 1014.5
20260506215535 3 0.0 0.0 0.00 0.00 0.00 75 1014.4
20260506215035 3 0.0 0.0 0.00 0.00 0.00 74 1014.4
20260506214545 3 0.0 0.0 0.00 0.00 0.00 74 1014.5
20260506214036 3 0.0 0.0 0.00 0.00 0.00 73 1014.3
20260506213536 4 0.0 0.0 0.00 0.00 0.00 72 1014.3
20260506213053 5 0.0 0.0 0.00 0.00 0.00 69 1014.2
20260506212536 5 0.0 0.0 0.00 0.00 0.00 68 1014.3
20260506212035 5 0.0 0.0 0.00 0.00 0.00 66 1014.2
20260506211556 5 0.0 0.0 0.00 0.00 0.00 68 1014.1
20260506211037 5 0.0 0.0 0.00 0.00 0.00 68 1014.0
20260506210535 5 0.0 0.0 0.00 0.00 0.00 67 1014.2
20260506210050 5 0.0 0.0 0.00 0.00 0.00 67 1014.0
20260506205538 5 0.0 0.0 0.00 0.00 0.00 66 1014.1
20260506205037 5 0.0 0.0 0.00 0.00 0.00 67 1014.1
20260506204546 5 0.0 0.0 0.00 0.00 0.00 67 1014.0
20260506204036 5 0.0 0.0 0.00 0.00 0.00 67 1014.1
20260506203535 5 0.0 0.0 0.00 0.00 0.00 67 1014.1
20260506203049 5 0.0 0.0 0.00 0.00 0.00 67 1014.2
20260506202537 5 0.0 0.0 0.00 0.00 0.00 68 1014.2
20260506202036 5 0.0 0.0 0.00 0.00 0.00 68 1014.1
20260506201549 5 0.0 0.0 0.00 0.00 0.00 68 1014.2
20260506201035 5 0.0 0.0 0.00 0.00 0.00 68 1014.1
20260506200534 5 0.0 0.0 0.00 0.00 0.00 67 1014.0
20260506200051 5 0.0 0.0 0.00 0.00 0.00 66 1014.1
20260506195536 6 0.0 0.0 0.00 0.00 0.00 66 1014.0
20260506195035 6 0.0 0.0 0.00 0.00 0.00 65 1014.0
20260506194553 6 0.0 0.0 0.00 0.00 0.00 66 1014.0
20260506194037 6 0.0 0.0 0.00 0.00 0.00 66 1013.9
20260506193534 6 0.0 0.0 0.00 0.00 0.00 65 1014.2
20260506193052 7 0.0 0.0 0.00 0.00 0.00 64 1013.9
20260506192534 7 0.0 0.0 0.00 0.00 0.00 62 1013.8
20260506192037 7 0.0 0.0 0.00 0.00 0.00 60 1013.8
20260506191541 7 0.0 0.0 0.00 0.00 0.00 58 1013.8
20260506191037 8 0.0 0.0 0.00 0.00 0.00 57 1013.8
20260506190534 8 0.0 0.0 0.00 0.00 0.00 57 1013.7
20260506190045 8 0.0 0.0 0.00 0.00 0.00 56 1013.7
20260506185535 8 0.0 0.0 0.00 0.00 0.00 56 1013.6
20260506185035 8 0.0 0.0 0.00 0.00 0.00 55 1013.4
20260506184543 9 0.0 0.0 0.00 0.00 0.00 55 1013.4
20260506184035 9 0.0 0.0 0.00 0.00 0.00 54 1013.4
20260506183538 10 0.0 0.0 0.00 0.00 0.00 54 1013.2
20260506183058 10 0.0 0.0 0.00 0.00 0.00 54 1013.2
20260506182534 10 0.0 0.0 0.00 0.00 0.00 53 1013.0
20260506182034 10 0.0 0.0 0.00 0.00 0.00 52 1013.0
20260506181558 10 0.0 0.0 0.00 0.00 0.00 52 1012.9
20260506181035 10 0.0 0.0 0.00 0.00 0.00 51 1012.9
20260506180537 10 0.0 0.0 0.00 0.00 0.00 49 1012.8
20260506180043 10 0.0 0.0 0.00 0.00 0.00 47 1012.9
20260506175536 10 0.0 0.0 0.00 0.00 0.00 48 1012.8
20260506175036 10 0.0 0.0 0.00 0.00 0.00 47 1012.9
20260506174548 10 0.0 0.0 0.00 0.00 0.00 47 1012.9
20260506174037 10 0.0 0.0 0.00 0.00 0.00 47 1012.9
20260506173536 11 0.0 0.0 0.00 0.00 0.00 48 1012.7
20260506173116 11 0.0 0.0 0.00 0.00 0.00 49 1012.8
20260506172536 11 0.0 0.0 0.00 0.00 0.00 48 1012.8
20260506172036 10 0.0 0.0 0.00 0.00 0.00 47 1012.8
20260506171551 10 0.0 0.0 0.00 0.00 0.00 46 1012.7
20260506171036 11 0.0 0.0 0.00 0.00 0.00 47 1012.5
20260506170536 11 0.0 0.0 0.00 0.00 0.00 47 1012.7
20260506170044 11 0.0 0.0 0.00 0.00 0.00 47 1012.7
20260506165534 11 0.0 0.0 0.00 0.00 0.00 47 1012.6
20260506165037 11 0.0 0.0 0.00 0.00 0.00 47 1012.6
20260506164547 11 0.0 0.0 0.00 0.00 0.00 47 1012.5
20260506164036 11 0.0 0.0 0.00 0.00 0.00 45 1012.5
20260506163539 11 0.0 0.0 0.00 0.00 0.00 46 1012.7
20260506163048 11 0.0 0.0 0.00 0.00 0.00 45 1012.6
20260506162537 11 0.0 0.0 0.00 0.00 0.00 47 1012.5
20260506162036 11 0.0 0.0 0.00 0.00 0.00 45 1012.6
20260506161546 11 0.0 0.0 0.00 0.00 0.00 45 1012.4
20260506161037 11 0.0 0.0 0.00 0.00 0.00 47 1012.5
20260506160536 11 0.0 0.0 0.00 0.00 0.00 46 1012.6
20260506160059 11 0.0 0.0 0.00 0.00 0.00 47 1012.5
20260506155534 11 0.0 0.0 0.00 0.00 0.00 46 1012.5
20260506155037 11 0.0 0.0 0.00 0.00 0.00 46 1012.6
20260506154551 12 0.0 0.0 0.00 0.00 0.00 47 1012.7
20260506154036 12 0.0 0.0 0.00 0.00 0.00 45 1012.5
20260506153535 12 0.0 0.0 0.00 0.00 0.00 45 1012.5
20260506153046 12 0.0 0.0 0.00 0.00 0.00 44 1012.4
20260506152536 12 0.0 0.0 0.00 0.00 0.00 43 1012.4
20260506152036 12 0.0 0.0 0.00 0.00 0.00 44 1012.4
20260506151550 12 0.0 0.0 0.00 0.00 0.00 45 1012.3
20260506151037 12 0.0 0.0 0.00 0.00 0.00 45 1012.4
20260506150537 12 0.0 0.0 0.00 0.00 0.00 43 1012.3
20260506150050 12 0.0 0.0 0.00 0.00 0.00 45 1012.3
20260506145537 12 0.0 0.0 0.00 0.00 0.00 43 1012.2
20260506145035 12 0.0 0.0 0.00 0.00 0.00 43 1012.2
20260506144550 12 0.0 0.0 0.00 0.00 0.00 43 1012.4
20260506144034 12 0.0 0.0 0.00 0.00 0.00 43 1012.2
20260506143536 12 0.0 0.0 0.00 0.00 0.00 42 1012.4
20260506143048 12 0.0 0.0 0.00 0.00 0.00 45 1012.3
20260506142534 12 0.0 0.0 0.00 0.00 0.00 42 1012.3
20260506142038 12 0.0 0.0 0.00 0.00 0.00 41 1012.2
20260506141549 12 0.0 0.0 0.00 0.00 0.00 41 1012.2
20260506141035 12 0.0 0.0 0.00 0.00 0.00 40 1012.2
20260506140535 12 0.0 0.0 0.00 0.00 0.00 43 1012.2
20260506140048 12 0.0 0.0 0.00 0.00 0.00 42 1012.2
20260506135534 12 0.0 0.0 0.00 0.00 0.00 44 1012.1
20260506135034 12 0.0 0.0 0.00 0.00 0.00 42 1012.2
20260506134548 12 0.0 0.0 0.00 0.00 0.00 41 1012.0
20260506134034 13 0.0 0.0 0.00 0.00 0.00 41 1012.1
20260506133534 13 0.0 0.0 0.00 0.00 0.00 44 1012.0
20260506133046 12 0.0 0.0 0.00 0.00 0.00 44 1011.9
20260506132534 12 0.0 0.0 0.00 0.00 0.00 43 1012.0
20260506132040 12 0.0 0.0 0.00 0.00 0.00 44 1012.0
20260506131557 12 0.0 0.0 0.00 0.00 0.00 44 1012.1
20260506131035 12 0.0 0.0 0.00 0.00 0.00 45 1012.0
20260506130535 13 0.0 0.0 0.00 0.00 0.00 48 1011.9
20260506130048 13 0.0 0.0 0.00 0.00 0.00 47 1011.8
20260506125534 12 0.0 0.0 0.00 0.00 0.00 50 1011.9
20260506125035 12 0.0 0.0 0.00 0.00 0.00 51 1011.9
20260506124540 12 0.0 0.0 0.00 0.00 0.00 51 1012.0
20260506124034 12 0.0 0.0 0.00 0.00 0.00 50 1011.9
20260506123536 12 0.0 0.0 0.00 0.00 0.00 50 1012.1
20260506123042 12 0.0 0.0 0.00 0.00 0.00 53 1011.9
20260506122535 12 0.0 0.0 0.00 0.00 0.00 51 1011.9
20260506122034 12 0.0 0.0 0.00 0.00 0.00 53 1011.8
20260506121544 12 0.0 0.0 0.00 0.00 0.00 55 1011.7
20260506121034 12 0.0 0.0 0.00 0.00 0.00 54 1011.9
20260506120538 12 0.0 0.0 0.00 0.00 0.00 54 1011.7
20260506120046 12 0.0 0.0 0.00 0.00 0.00 56 1011.7
20260506115535 12 0.0 0.0 0.00 0.00 0.00 55 1011.7
20260506115033 12 0.0 0.0 0.00 0.00 0.00 55 1011.8
20260506114549 12 0.0 0.0 0.00 0.00 0.00 60 1011.7
20260506114035 12 0.0 0.0 0.00 0.00 0.00 58 1011.8
20260506113535 12 0.0 0.0 0.00 0.00 0.00 59 1011.7
20260506113043 12 0.0 0.0 0.00 0.00 0.00 63 1011.7
20260506112535 12 0.0 0.0 0.00 0.00 0.00 63 1011.9
20260506112035 12 0.0 0.0 0.00 0.00 0.00 61 1011.8
20260506111542 12 0.0 0.0 0.00 0.00 0.00 64 1011.8
20260506111036 12 0.0 0.0 0.00 0.00 0.00 63 1011.7
20260506110535 12 0.0 0.0 0.00 0.00 0.00 63 1011.7
20260506110047 12 0.0 0.0 0.00 0.00 0.00 64 1011.8
20260506105535 11 0.0 0.0 0.00 0.00 0.00 66 1011.8
20260506105035 12 0.0 0.0 0.00 0.00 0.00 70 1011.8
20260506104549 11 0.0 0.0 0.00 0.00 0.00 70 1011.8
20260506104035 11 0.0 0.0 0.00 0.00 0.00 72 1011.9
20260506103535 11 0.0 0.0 0.00 0.00 0.00 72 1011.9
20260506103053 11 0.0 0.0 0.00 0.00 0.00 73 1011.9
20260506102535 11 0.0 0.0 0.00 0.00 0.00 75 1011.7
20260506102035 11 0.0 0.0 0.00 0.00 0.00 75 1011.9
20260506101541 11 0.0 0.0 0.00 0.00 0.00 76 1011.9
20260506101035 11 0.0 0.0 0.00 0.00 0.00 76 1011.9
20260506100538 10 0.0 0.0 0.00 0.00 0.00 75 1011.8
20260506100046 10 0.0 0.0 0.00 0.00 0.00 75 1012.1
20260506095535 10 0.0 0.0 0.00 0.00 0.00 76 1012.0
20260506095038 10 0.0 0.0 0.00 0.00 0.00 77 1012.0
20260506094607 10 0.0 0.0 0.00 0.00 0.00 77 1011.9
20260506094034 10 0.0 0.0 0.00 0.00 0.00 76 1012.0
20260506093534 10 0.0 0.0 0.00 0.00 0.00 77 1012.0
20260506093045 10 0.0 0.0 0.00 0.00 0.00 77 1012.1
20260506092534 10 0.0 0.0 0.00 0.00 0.00 76 1011.9
20260506092034 10 0.0 0.0 0.00 0.00 0.00 76 1012.0
20260506091545 10 0.0 0.0 0.00 0.00 0.00 75 1011.9
20260506091035 10 0.0 0.0 0.00 0.00 0.00 73 1011.9
20260506090534 10 0.0 0.0 0.00 0.00 0.00 72 1012.0
20260506090041 10 0.0 0.0 0.00 0.00 0.00 71 1011.8
20260506085535 10 0.0 0.0 0.00 0.00 0.00 69 1011.8
20260506085035 10 0.0 0.0 0.00 0.00 0.00 66 1011.7
20260506084544 10 0.0 0.0 0.00 0.00 0.00 66 1011.7
20260506084034 10 0.0 0.0 0.00 0.00 0.00 63 1011.6
20260506083538 10 0.0 0.0 0.00 0.00 0.00 66 1011.6
20260506083041 10 0.0 0.0 0.00 0.00 0.00 68 1011.6
20260506082535 10 0.0 0.0 0.00 0.00 0.00 66 1011.6
20260506082035 10 0.0 0.0 0.00 0.00 0.00 67 1011.6
20260506081539 10 0.0 0.0 0.00 0.00 0.00 66 1011.7
20260506081034 10 0.0 0.0 0.00 0.00 0.00 66 1011.7
20260506080534 10 0.0 0.0 0.00 0.00 0.00 67 1011.7